Regional Weather Roundup
Issued by NWS

Home | Current Version | Previous Version | Graphics & Text | Print | Product List | Glossary On
Versions: 1 2 3 4 5 6 7 8 9 10 11 12 13 14 15 16 17 18 19 20 21 22 23 24 25 26 27 28 29 30 31 32 33 34 35 36 37 38 39 40 41 42 43 44 45 46 47 48 49 50
629
ASUS43 KMPX 210401
RWRMN
WEATHER ROUNDUP FOR MINNESOTA
NATIONAL WEATHER SERVICE TWIN CITIES/CHANHASSEN MN
1100 PM CDT FRI OCT 20 2017


NOTE: "FAIR" INDICATES FEW OR NO CLOUDS BELOW 12,000 FEET WITH NO
SIGNIFICANT WEATHER AND/OR OBSTRUCTIONS TO VISIBILITY. N/A MEANS
CURRENT SKY AND/OR WEATHER CONDITIONS ARE NOT AVAILABLE.

MNZ060>063-068>070-210500-
   Twin Cities Metro

CITY           SKY/WX    TMP DP  RH WIND       PRES   REMARKS
TWIN CITIES    CLOUDY    68  52  56 S15G26    29.73S
ST PAUL        CLOUDY    67  50  54 S20G25    29.74S
CRYSTAL        CLOUDY    67  48  50 S16G26    29.71R
BLAINE         CLOUDY    68  52  56 S15       29.72S
LAKEVILLE      CLOUDY    64  52  63 S16       29.73S
EDEN PRAIRIE   CLOUDY    67  51  56 S13G24    29.71R
SOUTH ST PAUL  CLOUDY    67  49  51 S12G23    29.74R
LAKE ELMO      FAIR      64  50  59 S17G25    29.76R
$$
MNZ001>005-007-008-013>017-022>024-027-028-210500-
   Northwest Minnesota

CITY           SKY/WX    TMP DP  RH WIND       PRES   REMARKS
BEMIDJI        CLOUDY    67  50  54 S20G29    29.55S
HALLOCK        CLOUDY    70  54  56 S20       29.37S
ROSEAU         CLOUDY    68  55  64 S15G21    29.44S
WARROAD        MOCLDY    64  54  68 SE13      29.46S
CROOKSTON      MOCLDY    72  54  53 S29G39    29.41F
FOSSTON        CLOUDY    66  52  59 S25G32    29.49S
DETROIT LAKES  PTCLDY    66  54  63 S17G24    29.53S
MOORHEAD       MOCLDY    68  54  60 S24G35    29.45S
PARK RAPIDS    MOCLDY    66  51  58 S18G31    29.57F
MAHNOMEN       FAIR      67  54  61 S15G24    29.48F
$$
MNZ006-009>011-018-025>026-210500-
   North Central Minnesota

CITY           SKY/WX    TMP DP  RH WIND       PRES   REMARKS
BAUDETTE       MOCLDY    68  50  52 S20G30    29.51R
FLAG ISLAND    PTCLDY    57  50  77 S18       29.46S
INTL FALLS     PTCLDY    68  46  45 S8        29.57S
WASKISH        MOCLDY    70  50  49 S13G25    29.53R
BIG FORK       PTCLDY    66  46  48 S15G22    29.61S
LONGVILLE      MOCLDY    66  48  52 S17G26    29.61F
GRAND RAPIDS   CLEAR     64  47  53 S15       29.66S
CRANE LAKE     MOCLDY    64  43  45 S8G17     29.65S
ORR            PTCLDY    64  39  39 S12G23    29.63S
COOK           CLOUDY    64  43  45 S10G26    29.67S
WALKER         FAIR      67  50  53 S13G26    29.57F
$$
MNZ012-019>021-037-210500-
   Northeast Minnesota

CITY           SKY/WX    TMP DP  RH WIND       PRES   REMARKS
DULUTH         CLOUDY    63  44  50 S16       29.73S
ELY            PTCLDY    64  39  39 S15G22    29.70S
HIBBING        PTCLDY    64  42  44 S8G23     29.68S
EVELETH        MOCLDY    64  27  24 S9G16     29.71S
DULUTH HARBOR  CLOUDY    66  46  48 S9        29.73R
TWO HARBORS    CLOUDY    57  48  72 CALM      29.73S
GRAND MARAIS     N/A     51  47  86 N3        29.76S
G MARAIS ARPRT MOCLDY    61  39  44 S9        29.80S
$$
MNZ029>031-032-039>041-046>048-054>057-064-210500-
   West Central Minnesota

CITY           SKY/WX    TMP DP  RH WIND       PRES   REMARKS
FERGUS FALLS   PTCLDY    64  55  72 S18G26    29.51S
WHEATON        PTCLDY    66  55  68 SE18      29.49F
MORRIS         CLOUDY    66  55  68 S20       29.53F
ALEXANDRIA     PTCLDY    67  54  63 S22G29    29.59F
ELBOW LAKE     FAIR      64  55  71 SE22      29.53F
WADENA         PTCLDY    64  52  63 S15       29.57F
GLENWOOD       CLEAR     64  54  68 S23G29    29.60S
APPLETON       MOCLDY    70  55  60 S13G22    29.54S
BENSON         CLOUDY    68  55  64 S21G26    29.57F
ORTONVILLE     MOCLDY    68  55  64 N17G25    29.50F
MADISON        CLOUDY    72  57  60 S21G30    29.54S
WILLMAR        FAIR      66  55  68 S17G25    29.63R
$$
MNZ033>034-036-042>043-049>051-058-059-210500-
   Central Minnesota

CITY           SKY/WX    TMP DP  RH WIND       PRES   REMARKS
ST CLOUD       CLOUDY    65  51  60 S16G25    29.66F
SAUK CENTRE    FAIR      63  52  67 S16       29.62S
PAYNESVILLE    PTCLDY    65  53  63 S16G25    29.64S
AITKIN         CLOUDY    63  46  55 SE13G18   29.64F
PINE RIVER     CLOUDY    63  48  59 S13G18    29.65F
BRAINERD       CLOUDY    65  48  54 S15       29.64F
STAPLES        CLOUDY    64  48  55 S15G21    29.60F
LONG PRAIRIE   FAIR      63  50  63 SE16G26   29.62S
LITTLE FALLS   CLOUDY    64  41  42 S15       29.65R
LITCHFIELD     CLOUDY    66  54  63 SE10G18   29.66S
BUFFALO        PTCLDY    65  49  55 S13G21    29.70S
MAPLE LAKE     PTCLDY    66  53  62 S13G22    29.69S
HUTCHINSON     CLOUDY    66  54  64 S9G20     29.69R
$$
MNZ037-044-045-052-053-210500-
   East Central Minnesota

CITY           SKY/WX    TMP DP  RH WIND       PRES   REMARKS
PRINCETON      CLEAR     66  50  55 S12G23    29.70S
MORA           CLOUDY    63  46  55 S9        29.72S
CAMBRIDGE      CLEAR     66  50  55 SE9G16    29.71S
RUSH CITY      CLOUDY    64  47  54 S14       29.72S
MOOSE LAKE     CLEAR     63  43  48 S7        29.69F
HINCKLEY       FAIR      64  46  52 S8        29.72F
CLOQUET        PTCLDY    66  41  39 S14G21    29.72S
MCGREGOR       PTCLDY    63  45  51 S12       29.68F
$$
MNZ071>073-080-081-089-090-097-098-210500-
   Southwest Minnesota

CITY           SKY/WX    TMP DP  RH WIND       PRES   REMARKS
MONTEVIDEO     CLOUDY    66  55  68 S14G21    29.58R
GRANITE FALLS  MOCLDY    69  58  68 SE20G26   29.60S
CANBY          CLOUDY    70  58  65 S17G26    29.55F
MARSHALL       PTCLDY    68  57  68 S20G31    29.58S
REDWOOD FALLS  CLOUDY    67  53  61 S23G30    29.62F
OLIVIA         CLOUDY    68  54  60 S21       29.63S
PIPESTONE      PTCLDY    66  55  68 S20G29    29.60S
WORTHINGTON    PTCLDY    65  57  75 S22G28    29.65F
JACKSON        CLOUDY    64  54  68 S20G26    29.70S
TRACY          CLOUDY    66  58  73 S21G28    29.61F
SLAYTON        CLOUDY    64  57  78 S16       29.63F
$$
MNZ065>067-074>077-082>085-091>093-210500-
   South Central Minnesota

CITY           SKY/WX    TMP DP  RH WIND       PRES   REMARKS
MANKATO        MOCLDY    66  53  63 S16G26    29.72R
NEW ULM        CLOUDY    64  52  63 S18G28    29.67F
ST JAMES       CLOUDY    66  54  63 S22G30    29.69S
FAIRMONT       CLOUDY    65  55  70 S25G37    29.71R
GLENCOE        CLOUDY    67  52  57 S13G23    29.69R
FARIBAULT      CLOUDY    64  52  63 SE20G25   29.76R
OWATONNA       CLOUDY    64  52  63 S18G28    29.76S
WASECA         CLOUDY    63  50  63 S17G26    29.76S
$$
MNZ078>079-086>088-094>096-210500-
   Southeast Minnesota

CITY           SKY/WX    TMP DP  RH WIND       PRES   REMARKS
ROCHESTER      CLOUDY    62  49  62 S22G32    29.82S
RED WING       MOCLDY    68  43  40 S13G22    29.77S
STANTON        CLOUDY    66  50  56 S15G25    29.74S
DODGE CENTER   CLOUDY    63  48  59 S25       29.79S
WINONA         CLOUDY    70  45  40 S9G21     29.84R
AUSTIN         CLOUDY    63  48  59 S14       29.81S
PRESTON        CLOUDY    62  46  55 S18G26    29.85S
$$
ABBREVIATIONS USED IN REMARKS
   TC - TEMPERATURES IN CELSIUS
  WCI - WIND CHILL INDEX
   HX - HEAT INDEX
  VSB - VISIBILITY
$$




USA.gov is the U.S. government's official web portal to all federal, state and local government web resources and services.